Time,TemperatureF,DewpointF,PressureIn,WindDirection,WindDirectionDegrees,WindSpeedMPH,WindSpeedGustMPH,Humidity,HourlyPrecipIn,Conditions,Clouds,dailyrainin,SoftwareType,DateUTC
2013-02-11 00:08:00,48.0,46.4,29.82,SSW,202,5.0,5.0,94,0.00,,,0.00,Wunderground v.1.15,2013-02-11 05:08:00,
2013-02-11 00:18:00,48.1,46.5,29.82,South,178,4.0,5.0,94,0.00,,,0.00,Wunderground v.1.15,2013-02-11 05:18:00,
2013-02-11 00:28:00,48.3,46.7,29.82,SSW,195,4.0,6.0,94,0.00,,,0.00,Wunderground v.1.15,2013-02-11 05:28:00,
2013-02-11 00:38:00,48.5,46.9,29.82,SSE,164,5.0,7.0,94,0.00,,,0.00,Wunderground v.1.15,2013-02-11 05:38:00,
2013-02-11 00:48:00,48.7,47.1,29.81,SSW,196,5.0,5.0,94,0.00,,,0.00,Wunderground v.1.15,2013-02-11 05:48:00,
2013-02-11 00:54:00,48.7,47.1,29.81,SSW,196,5.0,7.0,94,0.00,,,0.00,Wunderground v.1.15,2013-02-11 05:54:00,
2013-02-11 01:09:00,49.2,47.5,29.81,South,190,6.0,6.0,94,0.00,,,0.00,Wunderground v.1.15,2013-02-11 06:09:00,
2013-02-11 01:18:00,49.4,47.5,29.81,SW,221,6.0,6.0,93,0.00,,,0.00,Wunderground v.1.15,2013-02-11 06:18:00,
2013-02-11 01:28:00,49.7,47.8,29.81,WSW,244,5.0,8.0,93,0.00,,,0.00,Wunderground v.1.15,2013-02-11 06:28:00,
2013-02-11 01:38:00,49.9,48.0,29.80,South,184,6.0,6.0,93,0.00,,,0.00,Wunderground v.1.15,2013-02-11 06:38:00,
2013-02-11 01:48:00,50.2,48.3,29.80,SSW,202,7.0,7.0,93,0.00,,,0.00,Wunderground v.1.15,2013-02-11 06:48:00,
2013-02-11 01:58:00,50.3,48.1,29.80,SSW,200,6.0,10.0,92,0.00,,,0.01,Wunderground v.1.15,2013-02-11 06:58:00,
2013-02-11 02:08:00,50.6,48.4,29.80,SSW,211,7.0,7.0,92,0.00,,,0.01,Wunderground v.1.15,2013-02-11 07:08:00,
2013-02-11 02:18:00,50.6,48.4,29.80,SW,234,5.0,5.0,92,0.00,,,0.01,Wunderground v.1.15,2013-02-11 07:18:00,
2013-02-11 02:28:00,50.8,48.6,29.80,South,186,6.0,6.0,92,0.00,,,0.01,Wunderground v.1.15,2013-02-11 07:28:00,
2013-02-11 02:38:00,50.8,48.3,29.80,SSW,211,6.0,8.0,91,0.00,,,0.01,Wunderground v.1.15,2013-02-11 07:38:00,
2013-02-11 02:48:00,50.6,48.1,29.80,SSW,208,5.0,6.0,91,0.00,,,0.01,Wunderground v.1.15,2013-02-11 07:48:00,
2013-02-11 02:58:00,50.6,48.1,29.80,SW,220,5.0,5.0,91,0.00,,,0.01,Wunderground v.1.15,2013-02-11 07:58:00,
2013-02-11 03:09:00,50.6,48.1,29.80,South,177,5.0,5.0,91,0.00,,,0.01,Wunderground v.1.15,2013-02-11 08:09:00,
2013-02-11 03:18:00,50.5,48.0,29.80,SSW,211,5.0,5.0,91,0.00,,,0.01,Wunderground v.1.15,2013-02-11 08:18:00,
2013-02-11 03:29:00,50.6,47.8,29.80,SSW,210,5.0,5.0,90,0.00,,,0.01,Wunderground v.1.15,2013-02-11 08:29:00,
2013-02-11 03:38:00,50.6,47.8,29.79,SW,220,5.0,5.0,90,0.00,,,0.01,Wunderground v.1.15,2013-02-11 08:38:00,
2013-02-11 03:48:00,50.8,47.7,29.79,SW,215,6.0,6.0,89,0.00,,,0.01,Wunderground v.1.15,2013-02-11 08:48:00,
2013-02-11 03:58:00,50.8,47.7,29.79,SSW,201,6.0,7.0,89,0.00,,,0.01,Wunderground v.1.15,2013-02-11 08:58:00,
2013-02-11 04:08:00,50.6,47.5,29.78,SSW,211,5.0,5.0,89,0.00,,,0.01,Wunderground v.1.15,2013-02-11 09:08:00,
2013-02-11 04:18:00,50.6,47.5,29.79,SW,220,6.0,6.0,89,0.00,,,0.01,Wunderground v.1.15,2013-02-11 09:18:00,
2013-02-11 04:28:00,50.4,47.0,29.78,SW,221,6.0,6.0,88,0.00,,,0.01,Wunderground v.1.15,2013-02-11 09:28:00,
2013-02-11 04:38:00,50.3,46.9,29.79,WSW,238,5.0,11.0,88,0.00,,,0.01,Wunderground v.1.15,2013-02-11 09:38:00,
2013-02-11 04:48:00,49.9,46.2,29.79,SW,231,5.0,5.0,87,0.00,,,0.01,Wunderground v.1.15,2013-02-11 09:48:00,
2013-02-11 04:58:00,49.8,46.1,29.79,South,185,6.0,6.0,87,0.00,,,0.01,Wunderground v.1.15,2013-02-11 09:58:00,
2013-02-11 05:09:00,49.6,45.6,29.79,SW,230,5.0,9.0,86,0.00,,,0.01,Wunderground v.1.15,2013-02-11 10:09:00,
2013-02-11 05:18:00,49.7,45.4,29.80,SW,234,7.0,7.0,85,0.00,,,0.01,Wunderground v.1.15,2013-02-11 10:18:00,
2013-02-11 05:28:00,49.5,44.9,29.80,WSW,238,6.0,8.0,84,0.00,,,0.01,Wunderground v.1.15,2013-02-11 10:28:00,
2013-02-11 05:38:00,49.3,44.7,29.79,SW,220,6.0,6.0,84,0.00,,,0.01,Wunderground v.1.15,2013-02-11 10:38:00,
2013-02-11 05:48:00,49.0,44.4,29.80,SW,230,6.0,6.0,84,0.00,,,0.01,Wunderground v.1.15,2013-02-11 10:48:00,
2013-02-11 05:58:00,49.2,44.3,29.80,SW,232,7.0,7.0,83,0.00,,,0.01,Wunderground v.1.15,2013-02-11 10:58:00,
2013-02-11 06:09:00,49.0,43.7,29.80,SW,227,7.0,10.0,82,0.00,,,0.01,Wunderground v.1.15,2013-02-11 11:09:00,
2013-02-11 06:18:00,48.8,43.5,29.80,SW,229,6.0,9.0,82,0.00,,,0.01,Wunderground v.1.15,2013-02-11 11:18:00,
2013-02-11 06:28:00,48.8,42.9,29.80,SW,217,7.0,8.0,80,0.00,,,0.01,Wunderground v.1.15,2013-02-11 11:28:00,
2013-02-11 06:38:00,48.9,42.3,29.81,WSW,251,8.0,8.0,78,0.00,,,0.01,Wunderground v.1.15,2013-02-11 11:38:00,
2013-02-11 06:48:00,48.8,41.2,29.81,WSW,252,9.0,17.0,75,0.00,,,0.01,Wunderground v.1.15,2013-02-11 11:48:00,
2013-02-11 06:58:00,48.7,39.4,29.82,SSW,207,11.0,14.0,70,0.00,,,0.01,Wunderground v.1.15,2013-02-11 11:58:00,
2013-02-11 07:08:00,48.2,38.1,29.82,SW,231,9.0,9.0,68,0.00,,,0.01,Wunderground v.1.15,2013-02-11 12:08:00,
2013-02-11 07:18:00,47.3,38.0,29.82,WSW,243,6.0,8.0,70,0.00,,,0.01,Wunderground v.1.15,2013-02-11 12:18:00,
2013-02-11 07:28:00,46.3,38.1,29.83,SSW,207,5.0,5.0,73,0.00,,,0.01,Wunderground v.1.15,2013-02-11 12:28:00,
2013-02-11 07:38:00,45.6,37.1,29.84,SW,229,5.0,7.0,72,0.00,,,0.01,Wunderground v.1.15,2013-02-11 12:38:00,
2013-02-11 07:48:00,45.1,35.9,29.85,West,273,6.0,7.0,70,0.00,,,0.01,Wunderground v.1.15,2013-02-11 12:48:00,
2013-02-11 07:58:00,44.9,35.7,29.85,WSW,246,6.0,6.0,70,0.00,,,0.01,Wunderground v.1.15,2013-02-11 12:58:00,
2013-02-11 08:09:00,44.7,35.5,29.85,WSW,255,5.0,9.0,70,0.00,,,0.01,Wunderground v.1.15,2013-02-11 13:09:00,
2013-02-11 08:18:00,44.6,35.1,29.86,West,273,6.0,9.0,69,0.00,,,0.01,Wunderground v.1.15,2013-02-11 13:18:00,
2013-02-11 08:28:00,44.7,35.1,29.86,SW,234,10.0,10.0,69,0.00,,,0.01,Wunderground v.1.15,2013-02-11 13:28:00,
2013-02-11 08:38:00,44.5,34.2,29.86,SW,236,8.0,8.0,67,0.00,,,0.01,Wunderground v.1.15,2013-02-11 13:38:00,
2013-02-11 08:48:00,44.2,33.6,29.87,WSW,238,9.0,9.0,66,0.00,,,0.01,Wunderground v.1.15,2013-02-11 13:48:00,
2013-02-11 08:58:00,44.0,34.1,29.88,SW,236,8.0,8.0,68,0.00,,,0.01,Wunderground v.1.15,2013-02-11 13:58:00,
2013-02-11 09:08:00,43.8,34.3,29.88,WSW,243,9.0,9.0,69,0.00,,,0.01,Wunderground v.1.15,2013-02-11 14:08:00,
2013-02-11 09:18:00,43.6,34.5,29.89,SSW,213,10.0,10.0,70,0.00,,,0.01,Wunderground v.1.15,2013-02-11 14:18:00,
2013-02-11 09:28:00,43.8,34.6,29.89,WSW,238,9.0,9.0,70,0.00,,,0.01,Wunderground v.1.15,2013-02-11 14:28:00,
2013-02-11 09:39:00,44.2,33.6,29.89,WSW,253,8.0,8.0,66,0.00,,,0.01,Wunderground v.1.15,2013-02-11 14:39:00,
2013-02-11 09:48:00,43.7,34.2,29.89,WSW,242,10.0,10.0,69,0.00,,,0.01,Wunderground v.1.15,2013-02-11 14:48:00,
2013-02-11 09:59:00,43.8,34.3,29.90,WNW,289,9.0,9.0,69,0.00,,,0.01,Wunderground v.1.15,2013-02-11 14:59:00,
2013-02-11 10:04:00,43.5,34.7,29.90,SW,229,8.0,10.0,71,0.00,,,0.01,Wunderground v.1.15,2013-02-11 15:04:00,
2013-02-11 10:18:00,42.2,32.4,29.91,West,273,9.0,9.0,68,0.00,,,0.01,Wunderground v.1.15,2013-02-11 15:18:00,
2013-02-11 10:24:00,41.4,31.6,29.91,West,275,11.0,11.0,68,0.00,,,0.01,Wunderground v.1.15,2013-02-11 15:24:00,
2013-02-11 10:38:00,41.1,31.3,29.92,WSW,241,12.0,13.0,68,0.00,,,0.01,Wunderground v.1.15,2013-02-11 15:38:00,
2013-02-11 10:48:00,41.6,30.7,29.92,SW,233,13.0,17.0,65,0.00,,,0.01,Wunderground v.1.15,2013-02-11 15:48:00,
2013-02-11 10:58:00,41.2,30.3,29.93,WNW,296,12.0,27.0,65,0.00,,,0.01,Wunderground v.1.15,2013-02-11 15:58:00,
2013-02-11 11:09:00,40.9,29.3,29.94,WSW,256,13.0,16.0,63,0.00,,,0.01,Wunderground v.1.15,2013-02-11 16:09:00,
2013-02-11 11:18:00,40.8,29.9,29.93,WSW,252,14.0,14.0,65,0.00,,,0.01,Wunderground v.1.15,2013-02-11 16:18:00,
2013-02-11 11:29:00,40.3,28.3,29.94,West,274,12.0,12.0,62,0.00,,,0.01,Wunderground v.1.15,2013-02-11 16:29:00,
2013-02-11 11:38:00,39.7,29.3,29.95,SW,223,11.0,11.0,66,0.00,,,0.01,Wunderground v.1.15,2013-02-11 16:38:00,
2013-02-11 11:49:00,39.3,28.5,29.96,WSW,239,11.0,11.0,65,0.00,,,0.01,Wunderground v.1.15,2013-02-11 16:49:00,
2013-02-11 11:58:00,40.1,29.6,29.95,SW,229,11.0,11.0,66,0.00,,,0.01,Wunderground v.1.15,2013-02-11 16:58:00,
2013-02-11 12:08:00,40.7,29.5,29.95,SSW,210,12.0,12.0,64,0.00,,,0.01,Wunderground v.1.15,2013-02-11 17:08:00,
2013-02-11 12:18:00,40.8,29.6,29.94,WSW,244,9.0,9.0,64,0.00,,,0.01,Wunderground v.1.15,2013-02-11 17:18:00,
2013-02-11 12:28:00,41.9,30.2,29.94,SW,236,9.0,12.0,63,0.00,,,0.01,Wunderground v.1.15,2013-02-11 17:28:00,
2013-02-11 12:38:00,41.8,29.3,29.94,WSW,237,12.0,12.0,61,0.00,,,0.01,Wunderground v.1.15,2013-02-11 17:38:00,
2013-02-11 12:48:00,42.6,30.9,29.93,West,265,10.0,10.0,63,0.00,,,0.01,Wunderground v.1.15,2013-02-11 17:48:00,
2013-02-11 12:58:00,42.4,29.5,29.94,WNW,294,10.0,15.0,60,0.00,,,0.01,Wunderground v.1.15,2013-02-11 17:58:00,
2013-02-11 13:09:00,42.3,29.8,29.93,WSW,254,11.0,12.0,61,0.00,,,0.01,Wunderground v.1.15,2013-02-11 18:09:00,
2013-02-11 13:18:00,43.3,30.3,29.93,SW,225,9.0,9.0,60,0.00,,,0.01,Wunderground v.1.15,2013-02-11 18:18:00,
2013-02-11 13:24:00,43.4,30.0,29.93,West,277,10.0,14.0,59,0.00,,,0.01,Wunderground v.1.15,2013-02-11 18:24:00,
2013-02-11 13:39:00,43.1,29.7,29.93,WSW,242,12.0,12.0,59,0.00,,,0.01,Wunderground v.1.15,2013-02-11 18:39:00,
2013-02-11 13:49:00,44.0,31.0,29.93,West,266,12.0,12.0,60,0.00,,,0.01,Wunderground v.1.15,2013-02-11 18:49:00,
2013-02-11 13:58:00,44.2,30.8,29.93,WSW,249,12.0,12.0,59,0.00,,,0.01,Wunderground v.1.15,2013-02-11 18:58:00,
2013-02-11 14:08:00,44.5,31.5,29.93,West,271,10.0,16.0,60,0.00,,,0.01,Wunderground v.1.15,2013-02-11 19:08:00,
2013-02-11 14:18:00,45.1,31.6,29.93,SW,226,11.0,11.0,59,0.00,,,0.01,Wunderground v.1.15,2013-02-11 19:18:00,
2013-02-11 14:29:00,44.3,29.6,29.94,SW,221,12.0,12.0,56,0.00,,,0.01,Wunderground v.1.15,2013-02-11 19:29:00,
2013-02-11 14:38:00,44.1,29.8,29.94,West,263,12.0,12.0,57,0.00,,,0.01,Wunderground v.1.15,2013-02-11 19:38:00,
2013-02-11 14:49:00,44.6,29.4,29.94,WSW,248,11.0,11.0,55,0.00,,,0.01,Wunderground v.1.15,2013-02-11 19:49:00,
2013-02-11 14:54:00,44.3,30.0,29.94,SW,221,11.0,22.0,57,0.00,,,0.01,Wunderground v.1.15,2013-02-11 19:54:00,
2013-02-11 15:08:00,43.3,29.5,29.95,SW,236,10.0,10.0,58,0.00,,,0.01,Wunderground v.1.15,2013-02-11 20:08:00,
2013-02-11 15:18:00,43.2,29.8,29.95,WSW,246,9.0,9.0,59,0.00,,,0.01,Wunderground v.1.15,2013-02-11 20:18:00,
2013-02-11 15:28:00,43.7,30.7,29.95,West,263,8.0,11.0,60,0.00,,,0.01,Wunderground v.1.15,2013-02-11 20:28:00,
2013-02-11 15:38:00,44.1,29.4,29.95,WSW,240,8.0,14.0,56,0.00,,,0.01,Wunderground v.1.15,2013-02-11 20:38:00,
2013-02-11 15:49:00,44.0,30.2,29.96,West,271,10.0,10.0,58,0.00,,,0.01,Wunderground v.1.15,2013-02-11 20:49:00,
2013-02-11 15:59:00,43.5,30.1,29.96,SW,214,10.0,14.0,59,0.00,,,0.01,Wunderground v.1.15,2013-02-11 20:59:00,
2013-02-11 16:04:00,43.6,30.2,29.96,West,281,10.0,14.0,59,0.00,,,0.01,Wunderground v.1.15,2013-02-11 21:04:00,
2013-02-11 16:18:00,43.3,30.3,29.97,West,270,9.0,12.0,60,0.00,,,0.01,Wunderground v.1.15,2013-02-11 21:18:00,
2013-02-11 16:28:00,43.4,30.0,29.97,WSW,238,10.0,12.0,59,0.00,,,0.01,Wunderground v.1.15,2013-02-11 21:28:00,
2013-02-11 16:38:00,43.2,30.2,29.98,WSW,255,8.0,8.0,60,0.00,,,0.01,Wunderground v.1.15,2013-02-11 21:38:00,
2013-02-11 16:48:00,43.1,29.7,29.98,WSW,242,10.0,10.0,59,0.00,,,0.01,Wunderground v.1.15,2013-02-11 21:48:00,
2013-02-11 16:58:00,42.9,29.5,29.98,WSW,257,9.0,9.0,59,0.00,,,0.01,Wunderground v.1.15,2013-02-11 21:58:00,
2013-02-11 17:08:00,42.6,29.7,29.98,West,270,9.0,15.0,60,0.00,,,0.01,Wunderground v.1.15,2013-02-11 22:08:00,
2013-02-11 17:19:00,42.5,29.6,29.99,WSW,240,9.0,9.0,60,0.00,,,0.01,Wunderground v.1.15,2013-02-11 22:19:00,
2013-02-11 17:29:00,42.3,29.4,29.99,SW,227,9.0,9.0,60,0.00,,,0.01,Wunderground v.1.15,2013-02-11 22:29:00,
2013-02-11 17:39:00,41.9,29.0,29.99,West,275,8.0,17.0,60,0.00,,,0.01,Wunderground v.1.15,2013-02-11 22:39:00,
2013-02-11 17:48:00,41.6,28.7,30.00,NNW,337,8.0,13.0,60,0.00,,,0.01,Wunderground v.1.15,2013-02-11 22:48:00,
2013-02-11 17:58:00,41.4,28.9,30.00,WSW,254,7.0,8.0,61,0.00,,,0.01,Wunderground v.1.15,2013-02-11 22:58:00,
2013-02-11 18:09:00,41.1,29.1,30.00,WSW,250,6.0,7.0,62,0.00,,,0.01,Wunderground v.1.15,2013-02-11 23:09:00,
2013-02-11 18:19:00,40.9,29.3,30.01,SW,234,5.0,5.0,63,0.00,,,0.01,Wunderground v.1.15,2013-02-11 23:19:00,
2013-02-11 18:28:00,40.8,29.6,30.01,WSW,258,5.0,5.0,64,0.00,,,0.01,Wunderground v.1.15,2013-02-11 23:28:00,
2013-02-11 18:39:00,40.9,28.9,30.01,WSW,254,7.0,7.0,62,0.00,,,0.01,Wunderground v.1.15,2013-02-11 23:39:00,
2013-02-11 18:49:00,40.9,28.5,30.01,WSW,246,7.0,7.0,61,0.00,,,0.01,Wunderground v.1.15,2013-02-11 23:49:00,
2013-02-11 18:59:00,40.7,28.7,30.01,West,269,6.0,11.0,62,0.00,,,0.01,Wunderground v.1.15,2013-02-11 23:59:00,
2013-02-11 19:08:00,40.7,28.7,30.01,SW,236,7.0,7.0,62,0.00,,,0.01,Wunderground v.1.15,2013-02-12 00:08:00,
2013-02-11 19:19:00,40.9,28.9,30.02,WSW,251,7.0,7.0,62,0.00,,,0.01,Wunderground v.1.15,2013-02-12 00:19:00,
2013-02-11 19:29:00,40.5,28.9,30.02,West,268,5.0,5.0,63,0.00,,,0.01,Wunderground v.1.15,2013-02-12 00:29:00,
2013-02-11 19:38:00,40.1,28.9,30.02,SW,233,5.0,5.0,64,0.00,,,0.01,Wunderground v.1.15,2013-02-12 00:38:00,
2013-02-11 19:48:00,40.2,29.4,30.03,WSW,244,5.0,6.0,65,0.00,,,0.01,Wunderground v.1.15,2013-02-12 00:48:00,
2013-02-11 19:58:00,40.4,29.6,30.03,West,273,6.0,6.0,65,0.00,,,0.01,Wunderground v.1.15,2013-02-12 00:58:00,
2013-02-11 20:09:00,40.2,29.4,30.04,SW,225,6.0,13.0,65,0.00,,,0.01,Wunderground v.1.15,2013-02-12 01:09:00,
2013-02-11 20:18:00,40.2,29.4,30.04,SW,227,7.0,8.0,65,0.00,,,0.01,Wunderground v.1.15,2013-02-12 01:18:00,
2013-02-11 20:28:00,40.0,28.8,30.04,West,275,7.0,7.0,64,0.00,,,0.01,Wunderground v.1.15,2013-02-12 01:28:00,
2013-02-11 20:38:00,39.7,28.9,30.04,WSW,258,6.0,6.0,65,0.00,,,0.01,Wunderground v.1.15,2013-02-12 01:38:00,
2013-02-11 20:48:00,39.3,28.9,30.05,West,273,5.0,8.0,66,0.00,,,0.01,Wunderground v.1.15,2013-02-12 01:48:00,
2013-02-11 20:58:00,39.3,28.9,30.05,West,260,6.0,8.0,66,0.00,,,0.01,Wunderground v.1.15,2013-02-12 01:58:00,
2013-02-11 21:08:00,39.1,28.7,30.05,WSW,251,6.0,7.0,66,0.00,,,0.01,Wunderground v.1.15,2013-02-12 02:08:00,
2013-02-11 21:18:00,38.8,28.8,30.05,WSW,243,6.0,6.0,67,0.00,,,0.01,Wunderground v.1.15,2013-02-12 02:18:00,
2013-02-11 21:28:00,38.4,28.8,30.05,WSW,245,5.0,5.0,68,0.00,,,0.01,Wunderground v.1.15,2013-02-12 02:28:00,
2013-02-11 21:38:00,38.4,28.8,30.05,SW,233,6.0,6.0,68,0.00,,,0.01,Wunderground v.1.15,2013-02-12 02:38:00,
2013-02-11 21:48:00,38.1,28.8,30.05,SW,236,5.0,5.0,69,0.00,,,0.01,Wunderground v.1.15,2013-02-12 02:48:00,
2013-02-11 21:58:00,37.8,28.9,30.06,West,269,4.0,4.0,70,0.00,,,0.01,Wunderground v.1.15,2013-02-12 02:58:00,
2013-02-11 22:08:00,37.5,28.6,30.06,WSW,254,5.0,7.0,70,0.00,,,0.01,Wunderground v.1.15,2013-02-12 03:08:00,
2013-02-11 22:18:00,37.6,29.0,30.06,West,279,7.0,7.0,71,0.00,,,0.01,Wunderground v.1.15,2013-02-12 03:18:00,
2013-02-11 22:28:00,37.6,29.0,30.06,SW,225,6.0,6.0,71,0.00,,,0.01,Wunderground v.1.15,2013-02-12 03:28:00,
2013-02-11 22:39:00,37.1,28.9,30.06,WSW,242,5.0,10.0,72,0.00,,,0.01,Wunderground v.1.15,2013-02-12 03:39:00,
2013-02-11 22:48:00,37.1,28.9,30.06,SW,236,6.0,6.0,72,0.00,,,0.01,Wunderground v.1.15,2013-02-12 03:48:00,
2013-02-11 22:59:00,37.0,28.8,30.06,SW,234,6.0,6.0,72,0.00,,,0.01,Wunderground v.1.15,2013-02-12 03:59:00,
2013-02-11 23:09:00,36.8,28.6,30.07,WSW,246,5.0,5.0,72,0.00,,,0.01,Wunderground v.1.15,2013-02-12 04:09:00,
2013-02-11 23:19:00,36.6,28.8,30.07,SSW,209,5.0,6.0,73,0.00,,,0.01,Wunderground v.1.15,2013-02-12 04:19:00,
2013-02-11 23:29:00,36.4,28.6,30.07,WSW,250,5.0,5.0,73,0.00,,,0.01,Wunderground v.1.15,2013-02-12 04:29:00,
2013-02-11 23:38:00,36.3,28.5,30.08,WSW,247,5.0,6.0,73,0.00,,,0.01,Wunderground v.1.15,2013-02-12 04:38:00,
2013-02-11 23:49:00,36.0,28.5,30.08,SW,214,5.0,5.0,74,0.00,,,0.01,Wunderground v.1.15,2013-02-12 04:49:00,
2013-02-11 23:58:00,35.9,28.4,30.08,West,279,5.0,7.0,74,0.00,,,0.01,Wunderground v.1.15,2013-02-12 04:58:00,